Wind_Speed
58 58 57 56 56 55 55 54 53 52 52 52 51 50 49 48 48 47 46 46 45 45 45 44 43 41 39 37 35 33 32 31 30 29 29 29 29 29 30 31 31 32 32 33 33 34 35 35 36 36 37 37 37 38 38 38 39 39 39 39 40 40 41 42 42 43 44 45 46 48 49 51 52 52 53 53 54 55 56 57 58 59 59 61 62 62
57 57 56 55 54 54 54 54 52 51 50 50 49 49 48 47 47 46 46 45 45 44 43 42 41 39 37 35 33 32 31 30 29 28 28 28 28 28 29 30 30 31 31 32 33 34 35 35 36 36 37 37 38 38 38 39 39 39 40 40 40 41 41 42 42 42 43 43 45 46 47 49 51 53 54 56 57 58 59 60 61 62 63 64 65 66
56 56 55 55 54 53 52 52 51 50 49 48 48 47 46 46 46 45 45 45 44 43 42 40 38 37 36 34 32 31 30 29 28 27 27 27 28 28 29 30 30 31 31 32 33 34 34 35 35 36 36 37 37 38 38 39 39 40 40 41 41 42 42 43 43 43 43 44 44 45 46 47 48 49 49 50 52 53 54 56 57 58 59 61 62 63
55 54 54 54 53 52 51 50 50 49 48 47 46 46 45 45 45 45 44 43 43 42 40 39 37 36 35 34 32 31 29 28 27 27 27 27 28 29 29 30 30 31 31 32 32 33 33 34 34 35 35 35 36 36 37 38 38 39 40 41 42 42 43 44 44 45 45 45 45 45 46 46 45 44 43 43 44 45 46 47 47 48 49 51 53 54
54 53 53 52 52 51 50 49 48 47 47 46 45 44 44 44 44 44 44 42 41 40 39 38 36 35 35 34 32 31 29 28 28 27 28 28 29 30 30 30 30 31 31 31 32 32 33 33 33 33 34 34 35 35 36 37 37 38 39 40 41 42 42 43 44 45 46 46 46 47 47 47 45 43 41 41 41 42 42 42 43 43 44 45 46 47
53 52 51 51 50 50 49 48 47 46 45 45 45 44 43 43 43 43 43 42 41 40 38 37 36 35 35 34 32 31 30 29 28 28 29 29 30 30 30 30 30 30 30 31 31 32 32 33 33 33 34 34 35 35 36 36 37 38 39 39 40 41 42 43 44 45 46 46 47 48 48 48 47 46 45 44 43 43 43 44 43 43 44 43 43 44
52 51 50 49 49 49 48 47 46 45 44 44 45 45 44 43 43 42 42 42 41 40 39 37 36 35 35 34 33 31 30 30 29 30 30 30 31 31 31 30 30 30 30 31 31 32 32 32 33 33 33 34 34 35 36 36 37 38 39 39 40 40 41 42 43 44 44 45 46 47 48 48 48 48 48 47 47 47 47 47 47 46 46 46 46 46
51 50 49 48 47 47 47 46 45 44 43 43 44 45 44 44 43 42 42 41 41 40 39 38 37 36 34 34 33 32 31 31 30 30 31 31 31 31 31 30 30 30 30 30 31 31 32 32 32 32 32 33 34 34 35 36 37 38 39 39 40 40 41 41 42 42 43 44 45 45 46 47 48 48 48 48 48 48 48 48 48 48 49 49 50 50
49 48 48 47 46 46 46 46 45 44 43 43 43 44 44 44 44 43 42 41 40 39 39 38 37 36 34 33 33 32 32 31 31 31 31 32 32 32 31 30 30 30 30 30 30 31 31 31 31 31 32 32 33 34 35 36 37 37 38 39 40 40 40 41 41 41 41 42 43 44 44 45 46 46 47 47 47 47 47 47 47 48 48 49 50 51
48 47 46 46 45 45 44 45 45 44 44 44 44 44 44 44 44 44 43 41 40 38 37 37 37 36 35 33 33 32 32 32 31 31 31 32 32 32 31 31 30 30 29 30 30 30 30 30 30 31 31 32 33 34 34 35 36 37 38 39 39 40 40 40 40 40 40 41 41 42 43 43 44 45 45 46 46 46 46 46 46 46 46 47 47 48
47 46 45 45 45 45 44 44 44 44 44 44 44 44 43 42 42 43 43 42 40 38 37 36 36 36 35 35 34 33 33 32 32 31 31 32 32 33 32 32 31 30 30 30 30 30 30 30 31 31 32 32 33 34 35 35 36 37 38 39 39 39 40 40 40 40 40 40 40 41 41 42 43 43 44 44 44 44 45 45 45 45 45 45 45 46
46 45 45 45 45 45 45 45 45 44 44 44 44 43 42 41 40 41 42 41 40 38 37 36 35 35 35 36 36 35 34 33 32 32 32 32 33 34 33 33 32 31 30 30 30 30 30 31 31 31 32 33 34 34 35 36 37 38 38 39 39 39 39 39 40 39 39 39 40 40 41 41 42 42 42 42 43 43 43 43 43 44 44 44 44 44
44 44 44 44 44 44 44 45 45 44 43 42 42 41 41 40 40 40 40 40 39 38 37 36 36 35 35 36 37 37 36 34 33 32 33 34 34 35 35 34 33 32 31 31 31 31 31 31 32 32 33 34 35 35 36 37 38 38 39 39 39 39 39 39 40 40 40 39 40 40 40 40 41 41 41 41 41 42 42 42 42 42 42 43 43 43
43 43 44 44 44 44 44 44 44 43 42 40 40 40 40 40 40 40 40 39 38 37 37 37 37 36 36 36 37 37 37 36 35 34 34 34 35 36 36 35 34 33 33 32 32 32 32 32 33 34 34 35 36 37 37 38 39 39 39 39 39 40 40 40 40 39 39 39 39 39 40 40 40 40 40 40 40 40 40 40 41 41 41 41 41 42
42 42 43 44 44 43 43 42 41 41 40 39 38 38 39 39 39 39 39 39 38 37 37 37 37 37 36 36 37 38 38 38 37 36 35 35 35 35 36 36 35 34 33 33 33 33 33 34 35 35 36 36 37 37 38 38 39 39 39 39 39 39 39 39 39 39 39 39 39 39 39 39 39 39 39 39 39 39 39 39 39 39 39 40 40 40
42 42 43 43 43 43 41 40 39 39 39 38 38 38 38 38 38 38 38 38 37 37 37 38 38 38 37 36 37 38 39 39 38 38 37 36 35 35 36 37 36 35 34 34 34 34 34 35 36 36 36 36 36 37 37 38 38 38 38 38 38 38 38 38 38 38 38 38 38 38 38 38 38 37 37 37 37 36 36 36 36 36 37 37 38 38
42 42 43 43 42 41 40 39 38 37 37 37 37 37 37 37 37 37 37 37 37 37 37 38 39 40 40 38 37 37 38 40 39 39 38 38 37 36 36 37 37 36 35 34 34 34 35 36 36 36 35 35 35 35 36 36 37 37 36 36 36 36 36 36 36 36 36 36 36 36 36 35 35 35 34 33 33 33 32 32 33 33 33 34 34 35
42 42 42 42 41 40 38 37 36 36 36 36 36 36 36 36 36 36 36 36 36 37 38 39 40 41 42 41 39 37 38 39 40 39 39 39 38 36 36 37 37 36 35 34 34 35 35 36 35 34 33 33 33 34 34 34 34 34 34 34 33 33 33 33 33 33 33 34 34 33 33 33 32 32 31 30 29 29 28 28 28 29 29 30 31 32
42 41 40 40 39 38 37 36 35 34 34 35 35 35 35 35 35 35 35 35 36 37 38 40 41 42 42 42 40 38 37 38 39 39 40 40 38 37 36 36 36 36 35 34 34 35 35 34 33 32 31 31 31 32 32 32 32 32 31 31 30 30 30 30 30 30 30 31 31 31 31 30 30 29 28 28 27 26 25 25 25 25 26 26 27 28
41 40 38 37 37 36 35 34 33 33 33 33 34 34 34 34 34 34 34 35 36 38 39 40 41 42 42 42 40 38 37 37 38 39 40 40 39 37 36 37 36 35 34 33 34 34 34 32 31 29 29 29 30 30 30 30 30 30 29 29 28 27 27 27 26 27 27 27 27 27 27 27 27 27 26 25 25 24 24 23 23 23 23 24 25 25
40 38 36 34 34 34 34 33 32 31 31 32 32 33 33 34 34 35 35 36 37 38 40 41 42 42 42 42 40 38 36 36 37 38 40 40 39 38 37 37 36 35 34 33 33 33 32 30 28 27 27 27 28 28 28 28 28 28 27 26 26 25 24 23 23 23 23 23 23 24 24 24 24 24 23 23 22 22 22 21 21 21 22 22 23 23
38 36 34 32 32 32 32 32 31 30 30 30 31 32 33 33 34 35 36 37 38 39 40 41 42 42 42 41 39 37 35 35 36 38 40 41 40 38 37 36 36 35 34 33 33 31 29 27 26 25 25 25 25 26 26 26 26 25 24 24 23 22 22 21 21 21 20 20 20 21 21 21 21 21 21 21 21 20 20 20 20 20 21 21 22 22
35 34 33 31 30 30 30 30 29 29 29 29 29 30 32 33 35 36 37 38 39 40 41 42 42 42 41 40 38 36 34 34 35 37 40 41 41 39 37 36 35 34 33 33 32 30 27 24 22 22 22 22 23 23 23 23 23 22 22 22 21 21 21 20 20 20 20 20 20 20 20 20 20 21 21 21 21 21 21 20 20 20 20 21 21 22
33 32 31 29 28 28 28 28 28 28 28 28 29 31 32 33 35 36 38 39 40 41 42 42 42 42 40 38 36 34 33 33 35 37 39 41 40 39 36 35 35 34 32 32 30 28 24 21 19 19 20 20 20 21 21 20 20 20 20 20 20 20 20 20 20 20 20 20 20 21 21 21 21 22 22 22 22 22 22 22 22 21 21 21 22 22
31 30 28 27 26 26 26 26 26 27 28 29 30 32 33 35 36 37 38 39 39 40 41 42 41 40 39 37 35 33 33 33 34 36 38 40 39 38 35 34 34 34 32 29 27 25 21 18 16 16 17 18 18 18 18 18 18 18 18 18 19 19 19 20 20 20 21 21 21 21 22 22 22 23 23 23 23 23 24 24 24 24 23 23 23 23
28 27 26 25 24 24 24 25 25 27 28 30 31 33 34 36 37 37 38 38 38 39 40 40 40 38 37 35 34 33 32 32 33 35 37 38 38 37 34 34 34 33 31 28 25 22 18 16 14 14 15 15 16 16 16 15 15 15 15 16 17 17 18 18 19 19 20 21 21 22 22 23 23 23 24 24 24 25 25 25 26 26 26 26 26 26
24 24 23 23 23 23 24 25 26 28 29 30 32 33 34 36 37 37 37 37 37 37 38 38 37 36 35 34 34 33 33 32 33 34 36 37 37 36 35 34 33 33 31 27 23 19 16 14 13 12 13 13 14 14 14 14 14 14 14 14 15 16 16 17 17 18 18 19 20 21 21 22 23 23 24 25 25 26 26 27 27 28 28 29 29 29
22 21 21 22 23 24 26 27 28 29 30 31 31 32 33 35 35 36 36 36 35 35 35 34 34 34 34 34 34 33 33 32 33 34 35 36 37 36 35 34 34 33 32 28 22 17 14 13 12 12 12 13 14 14 15 15 14 14 14 14 15 15 16 16 16 17 17 18 19 20 21 21 22 23 24 25 26 26 27 27 28 29 30 31 32 33
20 21 22 23 25 26 27 28 29 29 30 30 31 31 32 33 34 34 33 33 32 32 31 31 31 32 33 34 35 34 33 32 32 33 35 36 36 36 35 34 34 33 32 28 22 15 12 12 12 13 13 13 14 15 16 16 16 15 15 15 16 16 17 17 18 18 19 19 20 21 22 23 24 25 25 26 27 27 27 28 28 29 30 32 33 34
21 22 24 25 27 28 29 29 29 29 30 30 30 31 31 31 31 31 30 29 29 29 29 29 30 31 33 35 36 35 33 31 31 33 34 35 36 35 34 34 34 33 33 30 25 18 12 9 11 13 14 14 15 16 17 18 18 18 17 17 18 19 19 19 20 20 21 21 22 24 25 25 26 27 27 28 28 28 29 28 29 29 31 32 33 35
23 25 26 27 28 29 29 29 29 30 30 30 30 29 29 29 28 27 26 26 26 26 27 28 30 31 33 35 36 36 35 32 31 32 34 35 36 35 35 34 34 33 32 31 29 24 17 11 10 12 14 15 16 17 18 19 20 20 20 20 20 21 22 22 22 23 23 24 25 26 27 28 28 29 29 29 30 30 29 29 29 30 31 32 33 34
25 27 28 28 29 29 29 29 30 30 29 29 28 27 26 25 24 24 23 23 23 24 26 28 30 31 33 34 35 35 35 33 32 32 33 35 35 35 35 35 34 33 32 31 30 29 25 19 15 13 14 15 16 17 19 20 21 22 23 23 23 24 24 25 26 26 27 27 28 28 29 29 30 30 30 30 31 30 30 30 30 30 31 32 33 33
27 28 28 29 29 29 29 29 29 29 29 28 26 25 23 22 21 21 21 21 22 24 26 28 30 32 33 34 34 34 33 32 32 32 33 34 35 35 35 35 34 34 32 30 29 28 28 26 22 19 17 16 17 18 20 22 23 24 25 25 26 26 27 28 28 29 29 30 30 30 30 31 31 31 31 31 31 31 31 30 30 30 31 32 32 33
29 29 29 29 29 29 29 29 28 28 27 25 23 22 20 20 19 19 20 20 22 24 26 28 30 32 33 33 33 33 31 31 30 31 32 33 35 35 35 35 34 34 32 31 29 28 27 26 25 24 22 20 19 19 21 23 24 25 26 27 28 28 29 30 30 31 31 32 32 32 32 32 32 32 31 31 31 31 31 30 30 30 31 31 32 32
30 29 29 29 28 28 28 28 27 26 25 23 21 19 18 18 18 19 19 20 22 24 26 28 29 30 31 32 32 32 31 29 29 29 31 32 33 35 35 34 34 33 33 31 30 29 28 27 26 26 25 23 22 21 22 24 25 26 27 28 29 30 31 32 32 33 33 33 33 33 33 33 33 32 32 32 31 31 31 31 31 30 30 30 31 31
29 29 28 28 28 27 27 26 25 24 22 20 18 17 17 18 18 19 20 21 23 24 26 27 28 28 29 30 30 30 30 29 28 28 29 30 32 33 34 33 33 33 32 31 30 30 29 28 27 26 26 26 25 24 23 24 25 27 28 29 30 31 32 33 34 34 35 35 35 34 34 34 33 33 33 32 32 32 31 31 30 30 29 29 29 30
28 27 27 27 26 26 26 25 23 21 19 18 17 17 17 18 18 19 20 21 23 24 25 26 27 27 27 27 28 28 29 28 28 28 28 29 30 31 32 33 32 32 31 31 30 30 29 29 28 27 27 27 27 26 26 26 27 28 29 30 31 31 32 33 34 35 36 36 35 35 34 34 34 34 33 33 33 32 31 30 29 28 28 27 28 28
27 26 26 26 25 25 24 23 21 19 18 17 17 17 18 18 19 20 21 22 23 24 25 26 26 26 26 26 26 26 27 27 27 27 27 27 28 30 31 31 31 30 29 29 29 29 29 30 29 29 28 28 27 27 28 29 29 30 31 31 32 32 33 34 34 35 36 36 36 35 35 34 34 34 34 34 33 32 30 28 27 26 25 25 26 27
25 25 25 25 24 23 22 20 19 17 17 17 17 18 18 19 20 21 21 22 23 23 24 25 26 26 25 25 25 25 26 26 26 26 26 26 27 28 29 30 30 29 28 27 27 28 28 29 30 30 30 30 30 29 29 30 31 32 33 33 33 33 33 34 35 35 36 36 36 35 35 35 35 35 34 34 33 31 30 29 27 25 24 23 24 26
24 24 24 24 23 22 20 19 17 17 17 17 18 18 20 20 21 21 22 22 23 23 24 25 26 26 25 25 24 25 25 25 26 26 26 26 26 27 27 28 28 28 27 26 26 26 27 28 29 30 31 32 32 32 31 31 32 34 35 36 36 36 35 35 35 36 36 36 36 36 35 35 35 35 34 33 31 31 31 31 29 26 24 23 23 24
24 24 24 23 22 20 19 17 17 16 17 17 18 20 21 22 23 23 23 23 23 24 24 25 26 25 25 24 24 24 24 25 25 25 26 26 26 26 26 26 26 26 26 25 25 25 26 27 28 29 30 32 33 33 33 33 34 35 36 38 38 38 37 36 36 36 36 36 36 36 36 36 36 35 33 31 30 30 31 30 29 26 24 22 22 22
24 24 24 23 21 20 18 17 16 16 17 18 19 21 23 24 25 25 24 24 24 24 25 26 26 26 25 24 23 23 23 24 25 25 26 26 26 25 25 25 25 25 25 25 25 25 25 26 27 29 30 31 33 34 34 34 35 35 37 38 39 39 39 38 37 36 36 36 35 35 35 36 35 34 32 29 29 29 29 28 26 24 23 22 21 21
25 25 24 24 22 20 18 17 17 17 18 19 20 22 24 25 26 26 25 25 26 26 26 26 27 27 27 26 25 24 23 24 25 25 26 26 26 25 25 24 24 24 24 25 25 25 25 25 27 28 29 31 33 34 36 36 36 36 37 38 39 40 40 39 38 36 36 35 34 34 35 35 35 33 30 28 27 27 27 25 23 22 22 22 22 22
26 26 25 25 23 21 19 18 17 17 18 19 21 22 24 25 26 26 26 27 27 27 28 28 28 28 29 28 28 27 25 24 24 25 26 26 26 26 25 25 24 23 24 24 25 25 25 26 26 27 29 31 33 35 36 37 38 38 38 38 39 40 40 39 38 37 36 34 33 33 34 34 33 31 28 26 26 26 25 23 22 21 21 21 22 22
26 26 26 25 24 22 19 18 18 18 19 20 21 23 24 25 26 26 27 27 28 28 29 29 30 30 30 30 30 29 28 27 25 25 26 26 26 26 26 25 24 24 23 23 24 25 26 26 27 28 29 31 33 34 36 37 38 39 39 39 39 39 39 38 37 36 35 34 33 33 33 33 32 29 27 25 24 24 23 22 22 21 21 21 21 21
27 26 25 25 23 22 20 19 18 19 19 21 22 23 24 25 26 26 27 28 29 29 29 29 30 31 32 31 31 31 31 29 28 27 26 26 26 26 26 25 25 24 24 24 24 24 25 26 27 29 30 32 33 34 35 37 38 39 39 39 39 39 38 36 35 34 34 33 33 33 32 32 30 28 26 24 23 21 20 21 21 21 21 22 22 23
27 26 25 24 23 21 20 19 19 19 20 21 22 23 24 25 26 27 28 28 29 30 30 30 30 31 32 32 32 32 33 32 30 29 28 27 26 26 26 25 25 24 24 24 24 24 24 25 27 28 30 32 33 34 35 35 36 38 38 38 38 37 36 35 33 32 32 32 32 32 32 31 29 27 24 22 20 19 19 19 20 21 22 24 25 25
27 26 25 24 22 21 20 19 19 20 21 22 23 24 25 26 27 28 28 29 29 30 30 30 30 31 31 31 32 32 33 33 32 30 29 28 27 26 26 25 25 24 24 23 23 23 23 24 25 27 28 30 32 33 34 34 35 36 36 36 36 36 35 33 32 31 31 31 31 31 31 30 29 27 24 21 18 17 18 19 20 21 22 25 26 26
27 26 25 23 22 21 20 20 20 21 21 22 23 24 24 25 26 27 28 29 30 30 30 30 30 31 31 32 32 32 33 33 32 31 30 29 28 27 26 25 25 24 24 23 23 23 23 23 23 24 26 28 30 32 33 33 34 34 34 34 34 34 33 32 31 30 30 30 30 30 29 29 28 26 24 22 20 19 19 21 20 20 21 23 24 24
26 25 24 23 22 22 21 21 21 21 22 23 24 24 25 25 26 27 28 29 30 30 30 30 30 31 31 32 32 32 33 32 32 31 30 30 29 28 27 26 25 25 24 23 23 23 22 21 21 21 23 25 27 29 31 32 33 33 33 33 33 33 32 31 30 30 30 30 30 29 28 27 26 25 24 24 23 23 24 24 22 20 19 22 23 24
26 25 24 23 23 22 22 22 22 23 23 24 25 25 25 26 26 27 28 29 29 30 29 29 29 30 31 31 32 32 32 32 32 31 31 31 30 29 28 27 26 26 25 25 24 24 24 22 21 19 19 21 24 27 29 30 32 33 33 33 32 32 31 30 30 30 30 30 30 29 27 26 25 25 25 25 26 27 28 27 24 21 20 22 24 26
Wind_Direction
310 310 310 309 309 309 308 308 308 308 308 307 308 308 307 307 307 307 306 306 305 304 303 303 302 302 301 300 299 299 300 300 300 299 298 296 295 293 291 290 290 290 290 290 291 291 291 291 291 291 291 291 291 291 290 290 289 288 287 286 285 283 282 280 279 277 275 272 269 267 264 263 261 260 259 258 258 258 257 257 256 255 255 254 252 251
310 310 309 309 309 308 308 308 308 308 308 307 307 307 308 307 307 306 306 305 305 304 303 303 303 303 303 303 303 303 303 304 303 302 300 297 295 294 292 292 292 292 293 293 293 293 293 294 294 294 294 294 294 294 293 293 292 291 290 289 287 286 284 283 281 280 278 276 273 271 269 267 265 263 262 261 260 260 259 259 258 257 256 256 255 253
310 309 309 308 308 308 308 308 308 308 308 307 307 307 307 307 306 306 306 305 305 304 304 305 305 305 305 306 306 307 307 306 305 303 301 299 297 296 296 296 296 297 297 296 296 296 295 295 295 295 295 294 294 294 293 293 292 291 291 290 289 287 286 284 283 281 280 278 276 274 273 271 269 268 268 267 267 266 265 265 264 263 262 261 260 258
309 309 309 309 309 308 308 308 308 307 307 307 307 307 307 307 307 306 306 306 305 305 306 306 307 308 308 309 309 309 309 308 307 305 303 302 301 300 300 300 300 299 298 297 296 295 294 294 293 292 292 291 291 291 290 290 289 289 288 288 287 286 285 284 283 281 280 279 277 276 274 273 272 272 273 273 272 272 271 269 268 267 265 264 263 262
309 309 309 309 309 309 308 308 308 307 307 307 307 307 307 307 307 307 307 306 306 306 307 309 310 311 311 311 311 311 311 310 309 308 306 305 304 303 302 301 300 298 297 295 294 292 291 290 289 289 288 288 287 287 287 287 287 286 286 286 285 284 283 282 281 280 279 278 276 275 274 273 271 270 270 268 268 268 269 268 267 266 264 263 263 262
310 310 310 309 309 308 308 308 308 308 308 308 308 309 309 308 308 308 308 308 309 309 310 312 313 313 313 313 313 313 313 313 312 311 309 306 305 303 301 300 298 296 294 293 291 290 289 289 288 288 287 287 287 287 287 287 287 287 287 286 285 284 283 281 280 279 278 277 276 275 274 273 272 270 267 264 261 261 261 260 260 260 261 260 260 260
310 310 310 310 309 308 308 308 308 308 309 309 310 310 310 310 309 309 310 310 311 312 313 314 314 314 314 314 314 314 314 314 313 311 309 306 304 302 300 298 297 295 294 293 292 291 290 290 290 290 289 289 289 289 289 289 289 289 288 287 286 285 283 282 281 280 279 278 277 276 275 274 273 272 270 267 264 262 259 257 255 255 255 254 254 253
311 311 310 310 309 308 308 308 309 310 311 311 311 312 312 312 312 311 311 311 312 314 315 315 315 314 314 314 314 314 314 314 313 311 308 305 303 301 299 299 298 297 297 295 295 294 294 294 294 293 293 293 292 292 292 291 291 290 289 288 287 285 284 283 282 281 280 279 278 277 276 275 274 273 272 271 269 267 265 262 259 257 255 253 251 250
310 310 310 309 309 308 308 308 310 313 314 314 313 313 313 313 313 312 312 312 313 314 315 315 314 313 313 313 314 314 314 313 312 310 308 305 303 301 301 301 301 301 300 299 298 298 298 299 299 298 297 297 296 295 294 293 292 291 290 289 287 286 285 283 282 281 281 280 279 278 277 276 274 273 272 272 271 270 268 267 265 262 260 257 255 253
310 310 309 309 309 309 310 310 312 314 316 315 315 314 314 313 313 312 312 312 313 314 314 314 313 313 313 313 313 313 313 313 312 310 308 306 304 304 305 306 306 306 305 304 303 303 304 304 304 303 302 300 299 298 296 295 293 292 290 289 287 286 285 284 283 282 281 280 279 278 277 276 275 274 273 272 271 271 270 269 267 266 264 262 260 258
310 310 310 310 310 311 313 313 314 315 316 315 314 313 313 312 312 312 311 311 313 314 314 313 313 313 313 313 313 313 313 313 313 311 309 307 307 308 309 310 311 310 309 308 307 308 308 308 307 306 304 303 301 299 297 295 293 291 290 288 287 286 285 284 284 283 282 281 280 279 278 277 277 276 275 274 273 272 271 270 269 268 267 265 263 261
311 311 311 311 312 313 313 314 315 315 314 314 313 312 311 311 311 310 310 311 312 314 314 313 313 313 313 313 313 314 315 315 315 314 312 311 311 312 313 314 314 313 312 311 311 311 311 310 309 308 306 304 302 300 298 295 293 291 289 288 287 286 285 284 284 283 282 281 280 279 279 278 278 277 277 276 275 274 273 272 271 270 268 267 265 264
312 312 311 311 311 311 312 312 313 312 312 312 312 312 311 311 310 309 309 310 312 313 314 313 313 312 312 313 314 316 317 318 318 316 314 314 314 315 316 316 316 315 314 313 313 313 313 312 310 309 307 305 303 300 298 295 292 290 289 287 286 286 285 284 283 282 281 281 280 280 280 279 279 279 278 277 276 275 274 273 272 271 270 269 267 266
311 310 309 308 308 309 310 311 311 312 312 312 311 311 310 310 309 309 310 310 312 313 313 312 312 312 312 314 316 318 320 320 319 317 316 315 316 317 318 317 317 316 316 315 315 315 315 314 312 310 308 306 303 301 297 294 292 290 289 288 287 285 284 283 282 282 281 281 281 281 281 281 280 280 280 279 278 277 276 275 274 273 271 270 269 268
307 307 306 307 307 309 310 311 312 312 312 311 310 309 309 309 309 310 310 311 312 312 312 311 311 311 312 315 318 320 322 321 320 318 316 316 317 318 319 318 317 317 317 317 316 316 316 316 314 313 310 308 305 301 298 296 294 292 291 289 287 286 284 283 282 281 281 281 281 281 282 282 282 282 281 281 280 279 278 277 276 274 273 272 270 269
305 306 306 307 309 310 312 312 312 312 311 311 310 309 309 309 309 310 310 311 311 312 311 311 311 312 313 316 319 321 322 322 321 319 317 316 317 319 319 318 318 318 318 318 318 318 318 318 317 315 313 310 306 303 300 298 297 295 293 291 289 287 285 284 283 282 282 282 282 283 283 284 284 284 284 284 283 282 281 280 278 277 275 273 272 271
306 306 307 309 310 312 313 312 312 311 311 310 309 308 308 308 309 310 310 310 311 311 312 312 313 314 315 316 319 322 323 322 320 319 317 317 318 320 320 319 318 318 319 319 320 320 321 320 320 318 315 312 308 306 304 302 300 298 296 294 292 290 288 286 285 285 284 285 285 286 287 287 288 288 288 288 287 286 284 282 281 279 277 276 274 272
306 307 309 310 311 312 312 312 311 310 310 309 308 307 307 308 308 309 309 310 311 312 313 314 314 315 315 316 319 322 323 322 320 318 317 317 318 320 320 319 318 318 319 321 322 323 323 323 323 320 317 314 311 308 307 305 303 302 300 298 296 294 292 291 290 289 289 289 290 291 292 293 293 293 293 292 291 290 288 286 284 282 280 278 276 274
307 308 309 311 311 311 310 310 310 310 309 308 307 307 307 307 307 308 309 310 312 313 314 314 314 314 315 315 318 322 323 322 320 318 317 316 317 320 321 320 319 320 321 323 325 326 326 326 325 322 319 315 313 311 309 308 307 306 306 304 303 301 299 298 296 295 295 295 296 296 297 298 298 298 297 297 296 294 293 290 288 285 283 281 278 276
307 308 310 311 310 309 309 309 309 309 308 307 307 306 306 307 308 309 310 312 313 313 313 313 313 313 314 315 318 322 323 322 320 318 316 316 317 320 322 321 321 322 323 326 328 329 329 329 327 324 320 317 315 314 313 313 314 314 314 313 312 311 309 307 305 304 303 302 302 301 301 301 301 301 301 300 299 297 295 292 290 287 284 281 278 276
307 308 310 310 309 308 308 309 309 308 307 306 306 306 307 308 309 311 311 312 312 312 312 312 312 313 314 316 319 322 323 322 320 318 317 316 318 321 323 323 323 324 326 328 330 332 333 332 329 325 321 319 318 318 319 320 321 322 322 322 322 321 319 318 315 313 311 309 308 307 306 306 305 305 304 304 303 301 298 295 292 288 284 281 277 274
307 309 310 310 309 308 308 308 308 308 307 306 306 307 308 310 311 311 311 312 312 312 311 311 312 312 314 316 319 322 324 323 322 320 318 317 318 321 324 325 325 325 327 330 333 334 335 334 330 325 321 320 321 323 325 326 328 329 330 331 331 330 329 327 326 324 322 320 318 317 316 315 314 314 313 312 310 307 304 300 296 292 288 283 279 275
308 309 310 310 310 309 308 307 307 307 306 306 307 307 308 309 310 310 310 311 311 311 311 311 312 313 315 317 319 322 324 325 323 321 319 318 319 322 325 326 326 326 329 332 334 335 336 334 329 324 321 323 326 328 331 334 336 337 338 338 338 338 337 336 335 334 333 332 331 330 328 327 325 324 322 320 317 314 310 306 302 297 292 287 283 278
308 309 310 310 309 308 306 306 306 306 307 308 308 308 308 308 308 309 310 311 311 311 311 311 312 313 315 318 320 323 325 326 324 322 319 317 319 322 325 327 327 327 329 332 334 335 335 333 328 323 324 328 332 335 337 340 341 342 343 342 342 341 341 340 340 340 340 340 339 338 336 334 332 329 327 324 321 317 314 310 306 301 297 292 287 281
308 308 308 308 306 305 304 305 306 308 309 309 308 308 308 308 309 309 310 311 311 311 311 311 311 313 316 318 321 323 325 326 324 322 319 317 318 321 325 327 327 327 329 331 333 334 334 332 329 327 329 333 336 339 341 343 344 345 345 345 344 343 343 343 343 344 344 343 342 341 339 336 334 331 328 324 321 317 314 310 307 303 299 294 289 283
306 306 305 304 303 303 303 305 307 308 309 310 310 309 309 310 310 310 311 311 310 310 309 309 311 313 317 319 321 323 325 326 324 321 319 317 318 321 325 327 328 328 328 330 332 333 334 333 332 331 334 336 339 341 342 343 345 346 347 348 348 348 347 347 347 346 345 344 343 341 338 336 333 330 326 323 320 316 313 309 306 302 298 294 289 284
302 301 301 301 301 303 304 306 308 309 310 311 311 311 311 310 310 310 310 309 309 308 308 310 312 315 318 320 321 323 325 326 324 321 319 318 319 322 325 328 329 329 328 328 330 332 333 333 334 335 337 338 340 341 342 343 344 345 348 349 350 349 348 347 346 345 343 342 340 338 335 333 330 327 325 321 318 315 311 308 304 301 297 293 289 285
299 299 300 301 303 305 307 309 310 312 312 312 312 311 310 309 308 308 307 307 307 308 309 311 314 317 319 320 321 322 325 326 325 322 320 320 320 322 325 327 329 329 328 326 325 327 331 333 334 335 337 339 339 340 340 340 340 341 342 343 343 341 339 337 336 335 334 333 331 330 329 327 325 323 321 319 316 313 311 308 304 301 297 293 289 286
300 301 303 306 308 310 311 312 313 313 313 312 311 309 307 306 306 305 306 306 307 309 311 314 316 318 319 320 320 322 324 326 326 323 321 320 320 322 325 326 328 329 328 325 321 319 325 333 334 334 336 337 337 336 336 336 336 336 335 334 333 331 328 326 325 324 324 323 323 323 323 322 321 320 318 317 315 312 310 308 305 301 297 293 290 287
304 306 308 311 312 314 315 315 314 313 312 310 308 307 306 305 305 305 306 307 309 311 313 316 318 319 320 320 320 321 324 327 326 323 321 320 320 321 324 325 327 329 329 326 321 316 316 326 332 332 332 332 332 332 332 332 332 332 331 330 329 327 324 323 321 320 320 321 321 321 321 320 319 318 317 315 314 312 310 308 306 302 298 294 291 288
310 312 314 316 316 316 316 315 314 312 311 309 308 307 306 305 305 306 307 308 311 313 316 318 320 320 321 321 321 322 324 327 326 323 321 320 320 321 324 325 326 328 329 327 323 319 313 311 319 326 326 327 327 328 328 328 329 329 329 329 328 327 326 324 323 322 322 321 321 320 320 319 317 316 315 314 313 311 310 308 306 303 299 296 292 289
316 318 319 319 319 318 316 315 313 312 311 310 309 309 308 307 306 307 308 310 313 316 318 320 321 321 321 321 321 322 324 326 325 323 322 320 320 322 323 324 325 327 328 326 323 320 315 311 310 314 317 320 322 323 324 325 326 326 327 327 328 328 328 327 326 324 323 322 320 319 318 317 316 314 313 312 311 310 308 307 305 303 301 298 294 291
321 322 321 320 319 317 316 314 313 313 312 312 312 311 310 309 308 309 311 313 316 319 320 322 322 322 322 322 322 323 325 326 326 324 323 321 321 321 322 323 324 325 325 324 321 318 315 312 310 310 312 315 319 321 322 322 323 324 325 326 327 328 328 327 326 324 323 321 320 318 317 315 314 313 312 311 309 308 307 305 304 303 301 299 296 292
324 323 322 320 318 317 316 315 314 315 315 315 315 314 312 311 311 312 314 317 319 321 323 324 325 324 324 324 324 324 326 327 326 325 323 321 320 320 321 322 323 323 323 322 320 317 314 312 311 311 311 313 316 319 320 321 321 322 324 325 326 327 327 326 325 323 322 321 319 318 316 315 313 312 311 310 309 307 306 304 303 301 299 298 296 293
324 323 321 319 318 317 316 316 316 317 317 317 317 316 314 314 314 315 316 318 321 323 325 326 326 326 326 326 326 326 327 327 327 325 322 320 319 319 319 320 321 322 322 321 319 317 314 312 312 312 312 312 314 317 319 320 321 322 322 323 324 325 326 325 324 323 322 321 319 318 317 315 314 313 312 311 309 308 306 304 302 300 298 295 294 292
323 322 321 320 319 318 317 318 318 319 320 319 318 317 316 315 316 316 317 319 321 323 325 326 326 327 327 327 327 327 328 327 327 325 322 320 318 318 318 319 320 321 320 320 318 317 314 312 311 311 312 313 314 316 317 319 319 320 320 321 323 324 325 325 324 323 322 321 320 319 318 316 315 314 314 313 311 310 308 306 304 301 297 293 290 288
323 323 322 321 320 319 319 319 319 320 321 320 319 317 317 316 316 317 317 319 321 323 324 325 326 327 328 328 328 328 328 327 326 325 323 321 319 318 317 318 319 319 319 318 318 316 314 313 312 311 312 314 315 317 318 318 318 318 319 320 322 324 325 325 325 324 323 322 321 320 319 318 317 316 316 315 313 312 310 309 307 303 298 292 287 283
324 324 324 323 322 320 320 320 320 320 321 320 319 317 317 317 317 317 318 319 321 323 324 325 326 327 328 329 329 328 327 326 325 325 323 322 320 318 317 317 317 318 318 317 317 316 315 314 313 313 314 314 316 317 319 319 319 319 319 320 322 324 326 326 326 325 323 322 321 320 319 319 319 318 318 317 316 316 316 315 313 308 301 292 283 277
326 326 326 324 323 321 320 320 320 320 320 319 319 318 318 318 318 319 320 321 323 325 326 326 327 327 328 329 328 327 326 325 325 325 325 323 321 319 318 317 316 316 316 316 316 315 315 314 315 315 316 316 317 317 318 319 320 320 320 320 322 325 327 328 327 326 324 323 322 321 321 321 321 321 321 320 321 324 326 326 324 318 309 297 285 276
328 329 328 326 324 322 320 319 318 318 318 319 319 319 320 320 321 322 323 326 328 329 329 329 328 329 329 329 329 327 326 326 326 326 326 325 323 321 319 317 316 315 315 315 315 315 314 314 315 316 317 318 318 318 319 320 321 322 322 322 324 326 328 329 328 326 325 324 323 323 323 323 323 323 323 324 327 332 335 334 331 325 317 307 295 285
331 331 331 329 326 323 320 318 316 316 317 318 320 322 323 324 324 325 327 330 332 333 332 331 330 330 330 330 329 328 327 326 327 327 327 326 325 323 320 317 316 314 314 314 314 314 314 314 315 316 317 318 318 318 319 321 322 323 323 324 324 325 327 328 328 327 326 325 325 325 325 325 325 324 325 327 333 338 340 338 333 327 320 313 305 298
335 335 334 331 328 323 319 315 313 313 315 319 323 325 326 326 327 327 330 332 334 334 333 332 331 330 330 330 330 329 328 329 329 329 329 328 326 324 321 319 316 315 314 313 313 313 313 314 315 316 317 318 318 318 319 320 321 322 323 323 324 324 326 327 328 327 326 325 325 326 326 326 326 326 328 333 339 344 344 340 334 327 321 316 311 307
338 338 337 334 330 325 319 314 311 312 315 319 323 326 327 327 327 328 330 332 333 334 333 332 331 330 330 331 331 330 329 330 330 330 329 328 327 325 323 321 318 316 315 314 313 312 312 312 314 315 316 316 317 318 319 319 320 321 322 322 322 323 324 326 326 326 325 325 326 327 328 329 328 329 332 339 346 349 348 342 334 326 320 316 313 312
340 340 339 336 333 327 321 314 311 311 314 318 322 325 326 327 328 328 329 330 332 333 333 332 331 330 331 331 331 331 330 329 328 328 328 328 327 326 325 323 321 318 316 314 313 312 311 311 312 313 314 315 316 317 318 318 319 319 320 320 321 321 322 324 325 325 325 326 327 329 331 331 331 331 335 344 352 354 351 344 335 326 320 316 315 314
342 341 340 337 334 329 323 316 311 311 313 317 321 324 326 327 327 328 328 329 331 332 333 332 332 331 331 331 331 331 330 328 327 326 326 326 326 326 325 324 322 320 317 315 313 312 312 311 312 312 312 313 313 315 316 316 316 317 317 318 319 320 321 323 324 325 325 327 329 331 334 334 334 335 340 349 356 358 354 346 338 330 324 320 318 316
341 341 339 337 335 331 325 319 314 312 313 316 319 323 325 326 327 327 327 328 329 330 331 332 332 332 332 331 331 331 330 329 327 326 325 324 324 324 323 323 322 321 319 317 315 313 312 312 312 312 312 311 311 312 313 313 314 315 316 317 318 319 320 322 323 324 326 327 330 333 336 336 337 339 344 351 356 357 353 347 340 334 330 326 323 319
340 340 338 337 334 331 327 322 318 315 315 316 319 322 324 325 326 326 327 328 328 329 329 330 331 332 333 332 332 331 331 330 329 328 326 325 323 322 321 321 320 319 319 318 317 315 314 314 313 313 312 311 310 310 310 311 312 313 314 315 317 318 320 322 323 325 326 329 332 335 338 339 340 342 348 353 355 353 349 344 340 335 332 329 326 322
339 338 337 336 334 331 328 324 320 318 317 318 319 322 324 325 326 326 327 328 328 328 329 329 331 332 332 332 332 332 332 331 331 331 330 328 325 323 321 319 318 317 317 317 318 317 317 316 315 315 313 312 311 310 310 311 311 312 313 315 316 318 320 322 325 326 328 330 333 337 340 341 343 346 350 352 351 348 343 340 337 334 332 330 330 329
337 337 336 335 333 331 328 325 322 320 319 319 320 322 324 326 327 328 328 328 329 329 329 329 330 331 332 332 332 332 332 333 333 334 334 332 330 326 322 319 317 315 315 316 317 317 317 317 318 318 317 315 313 312 312 312 313 313 314 316 318 320 322 324 326 328 330 332 335 338 341 344 347 350 351 349 345 341 338 337 335 333 332 334 335 336
336 335 334 333 332 331 329 326 323 321 320 320 320 322 324 326 327 328 329 329 329 329 328 328 329 330 331 331 331 332 333 334 335 336 336 336 334 330 326 322 318 316 315 315 316 317 318 318 319 321 322 320 318 317 317 316 316 316 317 318 320 323 324 326 328 330 332 333 336 339 342 347 351 354 353 350 345 341 339 339 337 335 334 337 339 339
334 333 332 332 331 330 328 326 324 322 320 320 320 321 322 324 326 327 328 329 329 328 327 327 327 328 329 329 330 331 333 334 335 337 337 338 336 333 330 325 322 320 318 318 318 319 320 321 322 325 328 328 325 323 322 321 320 320 320 321 323 325 326 328 330 331 333 334 337 340 344 349 355 358 357 353 348 345 344 343 341 338 338 340 341 339
Height
2934 2931 2929 2926 2924 2922 2919 2916 2915 2914 2911 2907 2905 2903 2902 2900 2898 2895 2894 2893 2891 2889 2888 2886 2884 2883 2882 2881 2880 2879 2877 2875 2874 2873 2871 2869 2868 2867 2866 2864 2863 2862 2860 2859 2857 2856 2854 2853 2852 2850 2849 2848 2846 2845 2844 2843 2841 2840 2839 2838 2837 2836 2835 2834 2833 2832 2831 2831 2830 2830 2829 2829 2829 2828 2828 2828 2829 2829 2828 2829 2829 2829 2830 2831 2832 2833
2930 2928 2925 2923 2921 2919 2915 2913 2911 2909 2907 2905 2902 2900 2898 2897 2894 2892 2891 2889 2888 2886 2884 2883 2881 2880 2879 2877 2876 2875 2874 2872 2871 2869 2868 2867 2865 2864 2863 2862 2860 2859 2857 2856 2854 2853 2851 2850 2848 2847 2845 2844 2843 2841 2840 2839 2838 2836 2835 2834 2833 2832 2831 2830 2829 2828 2827 2826 2826 2825 2824 2824 2824 2823 2823 2823 2823 2823 2823 2823 2823 2824 2824 2825 2826 2827
2927 2924 2921 2919 2917 2915 2912 2910 2907 2905 2903 2901 2899 2897 2895 2893 2891 2889 2888 2886 2884 2882 2881 2880 2879 2877 2875 2874 2873 2872 2870 2869 2868 2867 2865 2864 2863 2861 2860 2859 2857 2856 2854 2853 2851 2849 2848 2846 2845 2844 2842 2841 2839 2838 2837 2835 2834 2833 2831 2830 2829 2828 2827 2825 2824 2824 2823 2822 2821 2820 2820 2819 2819 2819 2819 2819 2819 2819 2819 2819 2820 2820 2821 2821 2821 2822
2924 2921 2917 2915 2912 2910 2908 2907 2904 2902 2900 2898 2896 2894 2892 2890 2888 2886 2884 2883 2881 2879 2878 2877 2875 2874 2872 2870 2869 2869 2867 2866 2865 2864 2862 2861 2860 2859 2857 2856 2854 2853 2851 2850 2848 2847 2845 2844 2842 2841 2839 2838 2837 2835 2834 2833 2831 2829 2828 2827 2825 2824 2823 2822 2820 2819 2819 2818 2817 2816 2816 2815 2815 2816 2818 2817 2816 2816 2816 2816 2817 2818 2818 2818 2817 2817
2919 2917 2914 2911 2909 2906 2904 2903 2901 2899 2897 2894 2893 2891 2889 2888 2885 2882 2881 2879 2878 2876 2875 2873 2872 2870 2869 2867 2866 2865 2864 2863 2862 2861 2859 2858 2857 2856 2854 2853 2852 2850 2849 2847 2846 2844 2843 2841 2840 2839 2837 2836 2834 2833 2832 2830 2829 2827 2825 2824 2822 2821 2819 2818 2817 2815 2814 2814 2813 2812 2811 2810 2810 2812 2815 2814 2813 2813 2813 2812 2813 2813 2813 2813 2813 2813
2914 2913 2910 2908 2905 2903 2900 2899 2897 2895 2894 2891 2889 2887 2886 2885 2882 2880 2877 2875 2874 2873 2871 2870 2869 2867 2866 2864 2863 2862 2861 2860 2859 2858 2857 2855 2854 2853 2852 2850 2849 2848 2846 2844 2843 2841 2840 2839 2837 2836 2834 2833 2832 2830 2829 2827 2825 2824 2822 2820 2819 2817 2816 2814 2813 2812 2811 2809 2809 2808 2807 2806 2805 2806 2806 2806 2807 2808 2808 2807 2807 2808 2807 2808 2809 2809
2910 2908 2906 2904 2902 2899 2897 2895 2894 2893 2891 2888 2885 2883 2882 2881 2879 2877 2875 2872 2871 2869 2868 2867 2866 2864 2863 2862 2860 2859 2859 2858 2857 2855 2854 2853 2851 2850 2849 2848 2846 2845 2843 2842 2840 2839 2837 2836 2834 2833 2832 2830 2828 2827 2825 2823 2821 2819 2818 2816 2815 2813 2812 2810 2809 2808 2807 2805 2804 2803 2802 2801 2801 2800 2800 2800 2800 2801 2801 2801 2801 2802 2802 2803 2804 2804
2907 2904 2902 2900 2899 2896 2894 2892 2890 2889 2889 2886 2883 2880 2878 2876 2875 2874 2872 2870 2868 2867 2865 2864 2863 2862 2861 2859 2858 2857 2856 2855 2854 2853 2852 2850 2849 2847 2846 2845 2844 2842 2840 2839 2837 2836 2834 2833 2831 2830 2828 2827 2825 2823 2821 2819 2818 2816 2814 2812 2810 2809 2807 2806 2805 2804 2803 2801 2800 2799 2798 2797 2797 2796 2795 2795 2795 2795 2796 2796 2796 2797 2797 2797 2798 2799
2903 2902 2899 2897 2895 2894 2892 2889 2887 2886 2885 2883 2880 2878 2875 2873 2871 2869 2868 2867 2866 2865 2863 2862 2860 2859 2858 2857 2856 2855 2854 2853 2852 2850 2849 2847 2846 2844 2843 2842 2840 2839 2837 2836 2834 2833 2831 2829 2828 2826 2825 2823 2821 2819 2818 2815 2814 2812 2810 2808 2806 2804 2803 2802 2801 2799 2799 2797 2796 2795 2794 2794 2793 2792 2791 2791 2791 2790 2791 2791 2791 2792 2792 2793 2793 2794
2899 2898 2896 2894 2892 2890 2889 2887 2884 2883 2882 2880 2878 2875 2874 2871 2868 2866 2864 2864 2864 2863 2862 2860 2858 2856 2855 2854 2854 2852 2851 2850 2849 2848 2846 2844 2842 2841 2840 2839 2837 2836 2834 2833 2831 2829 2828 2826 2825 2823 2821 2819 2818 2816 2814 2812 2810 2808 2806 2804 2802 2800 2799 2798 2797 2795 2794 2794 2792 2791 2790 2789 2789 2788 2787 2787 2787 2786 2786 2786 2786 2787 2787 2788 2788 2789
2896 2894 2893 2890 2888 2887 2885 2884 2882 2881 2879 2877 2875 2873 2872 2870 2868 2864 2862 2860 2860 2860 2859 2858 2856 2854 2852 2851 2850 2850 2849 2848 2846 2845 2843 2841 2839 2838 2836 2835 2834 2833 2831 2829 2828 2826 2825 2823 2821 2820 2818 2816 2814 2812 2810 2808 2806 2804 2802 2800 2798 2796 2795 2794 2793 2792 2790 2789 2789 2788 2786 2786 2785 2784 2784 2783 2783 2782 2782 2782 2782 2782 2782 2783 2783 2784
2894 2891 2889 2888 2886 2884 2883 2881 2880 2879 2877 2875 2873 2870 2868 2868 2866 2864 2860 2858 2857 2857 2856 2855 2854 2852 2850 2848 2847 2846 2846 2845 2844 2842 2840 2838 2836 2834 2833 2832 2831 2829 2828 2826 2825 2824 2822 2820 2818 2816 2814 2813 2810 2808 2806 2804 2802 2799 2798 2796 2794 2793 2791 2790 2789 2788 2787 2786 2785 2784 2783 2782 2781 2780 2780 2779 2779 2779 2778 2778 2778 2778 2778 2778 2779 2779
2891 2889 2888 2886 2884 2883 2882 2880 2878 2876 2875 2873 2871 2868 2866 2864 2863 2862 2859 2857 2856 2854 2853 2852 2850 2850 2849 2847 2845 2843 2842 2841 2840 2839 2837 2835 2833 2831 2830 2829 2828 2826 2825 2823 2822 2820 2819 2817 2815 2813 2811 2809 2807 2804 2802 2799 2797 2795 2793 2792 2790 2789 2788 2786 2785 2784 2783 2782 2781 2780 2779 2779 2778 2777 2776 2776 2776 2775 2775 2774 2774 2774 2774 2774 2774 2774
2889 2888 2886 2884 2883 2881 2880 2879 2876 2874 2872 2871 2869 2866 2864 2862 2861 2859 2857 2855 2854 2853 2851 2849 2848 2847 2846 2845 2843 2841 2839 2838 2837 2836 2834 2832 2831 2829 2827 2825 2824 2824 2822 2820 2819 2817 2815 2813 2811 2809 2807 2805 2803 2800 2798 2795 2793 2791 2789 2788 2787 2785 2784 2783 2781 2780 2779 2779 2778 2777 2776 2775 2774 2774 2773 2773 2772 2772 2771 2771 2771 2770 2770 2770 2770 2770
2888 2886 2884 2882 2880 2879 2878 2877 2874 2872 2870 2868 2867 2864 2862 2860 2859 2857 2855 2853 2852 2850 2849 2847 2846 2844 2844 2843 2841 2839 2837 2835 2834 2832 2831 2829 2828 2827 2824 2823 2821 2820 2819 2817 2815 2814 2812 2810 2808 2805 2803 2801 2798 2795 2793 2791 2789 2787 2786 2784 2783 2781 2780 2779 2778 2777 2776 2775 2774 2773 2773 2772 2771 2770 2770 2769 2769 2768 2768 2767 2767 2767 2766 2766 2766 2766
2886 2884 2882 2880 2878 2877 2876 2874 2872 2870 2868 2866 2864 2862 2860 2858 2857 2855 2853 2851 2850 2848 2847 2845 2843 2841 2841 2841 2840 2838 2835 2833 2831 2829 2828 2826 2825 2825 2823 2820 2818 2817 2816 2814 2812 2810 2809 2806 2804 2801 2799 2796 2794 2791 2789 2787 2785 2784 2782 2780 2779 2778 2776 2775 2774 2773 2773 2772 2771 2770 2769 2769 2768 2767 2767 2766 2765 2765 2764 2764 2763 2763 2763 2763 2762 2762
2883 2882 2879 2877 2875 2874 2873 2872 2870 2868 2866 2864 2862 2860 2859 2857 2855 2853 2852 2850 2848 2846 2845 2843 2841 2839 2837 2837 2838 2837 2834 2831 2828 2826 2824 2823 2822 2822 2820 2818 2815 2814 2813 2811 2809 2807 2805 2803 2800 2798 2795 2792 2789 2787 2785 2783 2782 2780 2778 2777 2775 2774 2773 2772 2771 2770 2769 2769 2768 2767 2766 2766 2765 2764 2764 2763 2763 2762 2762 2761 2760 2760 2760 2759 2759 2759
2881 2879 2878 2875 2874 2872 2871 2869 2868 2866 2864 2862 2860 2858 2857 2855 2854 2852 2850 2849 2847 2844 2843 2841 2839 2837 2835 2834 2834 2834 2833 2829 2826 2823 2821 2820 2819 2819 2818 2816 2813 2811 2809 2808 2806 2804 2802 2799 2797 2794 2791 2789 2786 2784 2782 2780 2778 2776 2775 2774 2772 2771 2770 2769 2768 2767 2766 2766 2765 2764 2764 2763 2763 2762 2761 2761 2760 2759 2759 2759 2758 2758 2757 2757 2757 2756
2878 2877 2876 2874 2872 2870 2869 2867 2866 2864 2862 2860 2858 2856 2854 2853 2852 2850 2849 2847 2845 2843 2841 2839 2837 2835 2834 2832 2832 2832 2831 2828 2824 2821 2819 2817 2816 2816 2816 2814 2811 2809 2807 2805 2804 2801 2799 2796 2794 2791 2789 2786 2784 2782 2780 2778 2776 2774 2772 2771 2770 2769 2768 2767 2766 2765 2764 2764 2763 2762 2761 2761 2760 2759 2759 2758 2757 2757 2756 2756 2755 2755 2754 2754 2754 2754
2875 2875 2874 2873 2870 2868 2866 2865 2864 2863 2860 2858 2856 2854 2853 2851 2850 2849 2847 2845 2844 2842 2840 2838 2835 2834 2832 2830 2830 2829 2829 2826 2823 2819 2817 2814 2814 2814 2813 2811 2808 2806 2804 2803 2801 2799 2796 2793 2791 2789 2786 2784 2782 2779 2777 2775 2774 2772 2770 2769 2768 2767 2766 2765 2764 2763 2762 2762 2761 2760 2759 2759 2758 2757 2756 2755 2755 2754 2754 2753 2753 2752 2752 2751 2751 2751
2873 2872 2872 2871 2869 2866 2864 2863 2862 2861 2859 2857 2855 2853 2851 2849 2848 2847 2845 2844 2842 2840 2838 2836 2834 2832 2830 2829 2828 2827 2826 2824 2820 2817 2814 2812 2811 2811 2810 2808 2805 2803 2801 2799 2798 2796 2793 2791 2789 2786 2784 2782 2780 2778 2776 2774 2772 2771 2769 2768 2766 2765 2764 2763 2762 2761 2761 2760 2759 2758 2757 2756 2755 2754 2754 2753 2752 2751 2751 2750 2750 2750 2749 2749 2748 2748
2871 2870 2869 2869 2867 2864 2862 2861 2860 2859 2858 2856 2854 2851 2850 2848 2846 2844 2843 2842 2840 2838 2836 2834 2832 2830 2829 2827 2826 2825 2824 2822 2819 2815 2812 2809 2808 2808 2808 2805 2803 2800 2798 2797 2795 2793 2791 2789 2787 2785 2783 2781 2779 2777 2775 2774 2772 2770 2769 2767 2765 2764 2763 2762 2761 2760 2759 2758 2757 2756 2755 2754 2753 2752 2751 2751 2750 2749 2749 2748 2747 2747 2746 2746 2746 2745
2870 2868 2867 2866 2865 2863 2861 2860 2859 2857 2856 2854 2853 2851 2849 2847 2845 2843 2841 2839 2838 2835 2833 2831 2829 2828 2827 2825 2824 2823 2822 2820 2817 2814 2810 2807 2805 2804 2805 2803 2800 2798 2796 2794 2793 2791 2790 2789 2787 2784 2782 2780 2778 2777 2775 2773 2771 2769 2768 2766 2765 2763 2762 2761 2760 2759 2758 2757 2756 2754 2754 2753 2751 2750 2749 2749 2748 2747 2746 2746 2745 2744 2744 2743 2743 2742
2868 2867 2865 2864 2863 2862 2860 2859 2857 2856 2854 2853 2852 2850 2848 2846 2844 2842 2839 2838 2835 2833 2831 2829 2827 2825 2824 2824 2822 2821 2820 2818 2816 2812 2809 2806 2804 2803 2802 2800 2798 2796 2794 2793 2792 2790 2789 2787 2785 2783 2781 2779 2778 2776 2774 2772 2771 2769 2767 2766 2764 2763 2761 2760 2759 2758 2757 2755 2754 2753 2752 2751 2750 2749 2748 2747 2746 2745 2744 2744 2743 2742 2741 2741 2740 2739
2867 2865 2864 2863 2862 2860 2859 2857 2856 2855 2854 2852 2849 2847 2845 2844 2842 2840 2838 2836 2834 2831 2829 2827 2825 2824 2822 2822 2820 2819 2819 2817 2814 2811 2808 2804 2802 2801 2800 2799 2797 2794 2792 2791 2790 2789 2787 2786 2784 2782 2780 2779 2777 2775 2774 2772 2771 2769 2767 2766 2764 2763 2761 2760 2758 2757 2756 2754 2753 2752 2751 2750 2749 2748 2747 2745 2744 2744 2743 2742 2741 2740 2739 2738 2738 2737
2866 2864 2863 2862 2861 2859 2858 2857 2855 2854 2852 2850 2848 2845 2843 2841 2839 2837 2836 2834 2832 2830 2827 2825 2823 2822 2821 2820 2819 2818 2817 2815 2813 2810 2807 2803 2800 2799 2799 2797 2795 2793 2790 2789 2789 2787 2786 2784 2783 2781 2780 2778 2777 2775 2774 2772 2770 2769 2768 2766 2764 2763 2761 2759 2758 2757 2755 2754 2753 2751 2750 2749 2747 2746 2745 2744 2743 2742 2741 2740 2739 2738 2737 2736 2735 2734
2865 2864 2862 2861 2859 2858 2857 2855 2854 2852 2850 2848 2846 2844 2841 2839 2837 2835 2834 2832 2830 2828 2826 2824 2822 2820 2819 2818 2817 2816 2815 2814 2812 2809 2805 2802 2799 2797 2796 2795 2793 2791 2789 2787 2786 2786 2784 2783 2782 2780 2779 2778 2776 2775 2773 2772 2770 2769 2767 2765 2764 2762 2761 2759 2758 2757 2755 2754 2752 2751 2749 2748 2747 2745 2744 2743 2741 2740 2739 2738 2737 2735 2734 2733 2732 2731
2864 2863 2861 2860 2858 2857 2855 2854 2852 2850 2848 2846 2844 2842 2840 2838 2836 2834 2832 2831 2829 2827 2825 2823 2821 2819 2818 2816 2815 2814 2814 2812 2810 2806 2803 2800 2798 2795 2794 2793 2791 2789 2787 2785 2784 2784 2783 2782 2780 2779 2778 2777 2775 2774 2773 2771 2769 2768 2767 2765 2763 2762 2760 2759 2757 2756 2754 2753 2751 2750 2749 2747 2746 2744 2743 2741 2740 2738 2737 2735 2734 2733 2731 2730 2728 2727
2863 2861 2860 2858 2856 2855 2853 2851 2850 2848 2846 2845 2843 2841 2839 2837 2834 2833 2831 2829 2828 2826 2824 2822 2820 2819 2816 2814 2813 2813 2812 2811 2808 2805 2802 2799 2796 2794 2793 2791 2790 2788 2786 2784 2782 2782 2782 2781 2779 2778 2776 2775 2774 2773 2772 2770 2769 2767 2766 2764 2763 2761 2759 2758 2756 2755 2753 2752 2750 2749 2747 2745 2744 2743 2741 2740 2738 2736 2735 2734 2732 2730 2728 2726 2725 2724
2861 2859 2858 2856 2855 2853 2851 2849 2848 2846 2845 2843 2841 2839 2837 2835 2833 2831 2829 2828 2826 2825 2823 2821 2819 2818 2815 2813 2811 2810 2810 2809 2807 2804 2800 2798 2795 2793 2792 2790 2789 2787 2785 2782 2780 2779 2779 2779 2778 2777 2775 2774 2773 2772 2770 2769 2768 2766 2765 2763 2762 2760 2758 2757 2755 2754 2752 2750 2749 2747 2745 2744 2742 2741 2739 2738 2736 2734 2733 2731 2729 2728 2725 2723 2721 2720
2859 2858 2856 2854 2853 2851 2849 2847 2846 2844 2843 2841 2839 2837 2835 2833 2831 2829 2828 2827 2825 2824 2822 2820 2819 2817 2815 2812 2809 2807 2806 2806 2805 2803 2799 2796 2794 2791 2790 2788 2787 2785 2784 2782 2779 2777 2776 2776 2776 2776 2774 2773 2772 2770 2769 2768 2766 2765 2763 2762 2760 2759 2757 2755 2754 2752 2750 2749 2747 2745 2744 2742 2740 2739 2737 2735 2734 2732 2730 2729 2727 2725 2723 2720 2718 2716
2857 2856 2854 2852 2851 2849 2847 2845 2844 2842 2840 2839 2837 2835 2833 2832 2830 2829 2827 2826 2824 2823 2821 2820 2818 2816 2814 2811 2809 2806 2804 2804 2803 2800 2798 2795 2792 2790 2789 2787 2785 2784 2783 2781 2779 2777 2774 2773 2774 2774 2773 2772 2770 2769 2768 2766 2764 2763 2761 2760 2759 2757 2755 2754 2752 2750 2749 2747 2745 2744 2742 2740 2739 2737 2735 2733 2731 2730 2728 2726 2725 2723 2720 2717 2715 2713
2855 2854 2852 2850 2849 2847 2845 2843 2842 2840 2838 2836 2835 2833 2832 2830 2829 2828 2826 2825 2824 2822 2820 2819 2816 2814 2812 2810 2808 2806 2804 2802 2801 2799 2796 2793 2790 2788 2787 2785 2784 2782 2781 2780 2779 2776 2774 2772 2771 2771 2771 2770 2769 2768 2766 2765 2763 2761 2759 2758 2756 2755 2754 2752 2750 2748 2747 2745 2743 2742 2740 2738 2736 2734 2733 2731 2729 2727 2725 2724 2722 2720 2718 2715 2712 2709
2853 2852 2850 2848 2847 2845 2843 2841 2839 2838 2836 2834 2833 2832 2830 2829 2828 2827 2825 2824 2823 2821 2819 2817 2815 2813 2810 2808 2806 2804 2803 2802 2800 2798 2795 2793 2790 2787 2785 2784 2782 2781 2779 2778 2776 2775 2773 2771 2769 2769 2768 2768 2767 2766 2765 2763 2761 2759 2758 2756 2754 2753 2751 2750 2748 2746 2744 2743 2741 2739 2737 2735 2734 2732 2730 2728 2726 2724 2722 2720 2719 2717 2714 2712 2709 2707
2851 2850 2848 2846 2844 2843 2841 2839 2838 2836 2834 2833 2832 2830 2829 2828 2827 2826 2824 2823 2822 2820 2818 2816 2814 2812 2809 2807 2804 2803 2801 2800 2799 2797 2795 2792 2789 2786 2784 2783 2781 2779 2778 2776 2774 2773 2771 2770 2769 2767 2766 2765 2765 2764 2764 2761 2759 2758 2756 2754 2753 2751 2749 2748 2746 2744 2742 2740 2738 2736 2734 2732 2730 2729 2727 2725 2723 2721 2719 2717 2715 2713 2711 2709 2707 2704
2850 2848 2846 2844 2843 2841 2839 2838 2836 2834 2833 2832 2830 2829 2828 2827 2826 2825 2824 2822 2821 2819 2817 2815 2813 2811 2809 2806 2804 2802 2800 2799 2798 2796 2794 2792 2789 2786 2783 2781 2780 2779 2776 2774 2773 2771 2770 2768 2767 2766 2764 2763 2762 2762 2761 2760 2758 2756 2754 2753 2751 2750 2748 2746 2744 2741 2739 2737 2735 2734 2731 2729 2727 2725 2723 2721 2719 2717 2715 2713 2711 2709 2706 2704 2703 2701
2848 2847 2845 2843 2841 2839 2838 2836 2835 2833 2832 2831 2829 2828 2827 2826 2825 2824 2823 2821 2819 2818 2816 2814 2812 2810 2808 2806 2804 2801 2799 2798 2796 2794 2793 2791 2788 2785 2782 2780 2779 2778 2776 2774 2772 2770 2769 2767 2765 2764 2763 2762 2760 2759 2758 2757 2756 2754 2753 2751 2749 2748 2746 2744 2742 2739 2737 2734 2733 2731 2729 2726 2724 2722 2720 2718 2715 2713 2711 2709 2706 2704 2702 2700 2698 2697
2847 2845 2843 2841 2839 2838 2836 2835 2834 2832 2831 2830 2829 2827 2826 2825 2824 2822 2821 2820 2818 2817 2815 2813 2811 2809 2808 2805 2803 2801 2799 2797 2795 2794 2792 2789 2788 2785 2782 2779 2778 2777 2775 2773 2771 2769 2767 2765 2764 2762 2761 2759 2759 2757 2756 2754 2753 2751 2750 2749 2747 2746 2744 2742 2740 2737 2735 2732 2730 2728 2726 2724 2721 2719 2716 2714 2711 2709 2706 2704 2701 2699 2697 2695 2694 2692
2845 2844 2842 2840 2838 2836 2835 2834 2832 2831 2830 2829 2827 2826 2825 2824 2822 2821 2820 2818 2817 2815 2813 2811 2810 2808 2806 2804 2803 2801 2799 2796 2794 2793 2790 2789 2787 2784 2782 2779 2777 2775 2774 2772 2771 2769 2767 2764 2762 2760 2759 2757 2756 2755 2754 2753 2751 2749 2747 2745 2744 2743 2742 2740 2738 2735 2733 2730 2728 2725 2723 2720 2718 2715 2713 2710 2707 2704 2702 2699 2697 2695 2693 2690 2689 2688
2844 2842 2840 2839 2837 2835 2834 2832 2831 2830 2829 2828 2826 2825 2824 2823 2821 2820 2819 2817 2815 2814 2812 2810 2808 2806 2805 2803 2802 2800 2798 2795 2794 2791 2789 2787 2785 2783 2781 2779 2776 2774 2773 2771 2770 2768 2766 2764 2762 2759 2758 2755 2753 2752 2751 2750 2749 2746 2744 2742 2740 2739 2739 2738 2735 2733 2730 2728 2725 2722 2720 2717 2715 2712 2709 2707 2704 2701 2698 2695 2693 2691 2689 2687 2685 2684
2842 2841 2839 2837 2836 2834 2833 2831 2830 2829 2828 2826 2825 2824 2823 2821 2820 2819 2817 2816 2814 2812 2810 2809 2807 2805 2804 2802 2801 2799 2797 2794 2793 2790 2788 2786 2784 2782 2780 2778 2775 2773 2771 2770 2768 2767 2765 2763 2760 2759 2756 2754 2752 2750 2749 2748 2747 2745 2743 2740 2738 2736 2735 2734 2733 2731 2728 2725 2723 2720 2717 2714 2712 2709 2707 2704 2701 2698 2695 2693 2690 2688 2686 2685 2683 2681
2841 2839 2838 2836 2834 2833 2832 2830 2829 2828 2827 2825 2824 2823 2821 2819 2818 2816 2815 2814 2812 2810 2809 2807 2805 2804 2802 2801 2800 2798 2796 2794 2791 2789 2787 2785 2783 2781 2779 2777 2774 2772 2770 2768 2767 2765 2764 2762 2759 2757 2755 2753 2751 2749 2747 2746 2745 2744 2741 2739 2736 2734 2732 2732 2731 2729 2726 2723 2721 2719 2715 2712 2709 2706 2704 2700 2697 2694 2692 2690 2689 2686 2684 2682 2681 2679
2839 2838 2836 2835 2833 2832 2830 2829 2828 2827 2825 2824 2823 2821 2820 2818 2816 2815 2813 2811 2810 2809 2807 2805 2803 2802 2800 2799 2798 2796 2795 2793 2790 2788 2786 2784 2782 2779 2777 2775 2773 2771 2769 2767 2765 2763 2762 2760 2759 2756 2754 2752 2750 2747 2745 2744 2743 2741 2740 2738 2735 2732 2730 2729 2728 2726 2724 2722 2719 2716 2714 2710 2707 2704 2701 2697 2694 2692 2690 2688 2687 2685 2683 2681 2679 2677
2838 2836 2835 2833 2832 2830 2829 2828 2826 2825 2824 2823 2821 2820 2819 2817 2815 2813 2811 2810 2808 2807 2805 2803 2801 2800 2798 2797 2795 2794 2793 2791 2789 2787 2785 2782 2780 2778 2776 2774 2772 2770 2769 2766 2764 2762 2760 2759 2757 2755 2754 2751 2749 2746 2744 2742 2740 2739 2738 2736 2734 2732 2729 2727 2725 2723 2721 2719 2717 2715 2712 2708 2705 2701 2698 2695 2692 2689 2688 2687 2685 2683 2681 2679 2678 2676
2836 2835 2834 2832 2830 2829 2828 2826 2825 2824 2823 2821 2820 2819 2817 2816 2814 2812 2810 2809 2807 2805 2804 2802 2800 2798 2796 2795 2793 2792 2790 2789 2787 2786 2784 2781 2779 2777 2774 2772 2770 2769 2767 2765 2763 2761 2759 2757 2755 2754 2752 2750 2748 2745 2743 2741 2739 2737 2736 2734 2733 2730 2728 2726 2724 2721 2719 2717 2715 2712 2710 2706 2703 2699 2696 2692 2689 2688 2687 2685 2684 2682 2680 2679 2677 2675
2835 2834 2832 2831 2829 2828 2827 2825 2824 2823 2821 2820 2819 2817 2816 2814 2813 2811 2809 2808 2806 2804 2802 2800 2799 2797 2794 2793 2791 2789 2788 2786 2785 2783 2781 2779 2777 2775 2773 2771 2769 2767 2765 2764 2762 2760 2759 2756 2754 2752 2750 2748 2746 2745 2743 2740 2738 2735 2734 2732 2730 2728 2726 2724 2723 2720 2717 2715 2712 2710 2708 2704 2701 2698 2694 2690 2688 2686 2685 2684 2683 2681 2679 2677 2676 2674
2834 2833 2831 2829 2828 2827 2825 2824 2823 2822 2820 2819 2818 2816 2815 2813 2812 2810 2808 2807 2805 2803 2801 2799 2798 2796 2794 2792 2789 2787 2785 2784 2782 2780 2779 2777 2775 2773 2771 2769 2768 2766 2764 2762 2761 2759 2757 2755 2754 2751 2749 2747 2744 2743 2741 2739 2737 2734 2732 2730 2728 2726 2724 2723 2721 2719 2716 2713 2711 2708 2706 2703 2699 2696 2692 2689 2687 2685 2684 2683 2682 2680 2678 2676 2674 2672
2833 2831 2830 2829 2827 2826 2824 2823 2822 2820 2819 2818 2817 2815 2814 2813 2811 2809 2807 2805 2804 2802 2800 2798 2796 2794 2793 2791 2789 2787 2784 2782 2780 2778 2776 2774 2773 2771 2769 2768 2766 2764 2763 2761 2759 2758 2756 2754 2753 2751 2748 2745 2743 2740 2739 2738 2736 2734 2731 2729 2727 2724 2722 2720 2719 2716 2714 2712 2709 2707 2704 2702 2698 2694 2690 2688 2686 2684 2683 2682 2680 2679 2677 2675 2672 2670
2832 2830 2829 2827 2826 2824 2823 2822 2820 2819 2818 2817 2815 2814 2813 2812 2810 2808 2806 2804 2802 2800 2799 2797 2795 2793 2791 2789 2788 2786 2784 2781 2779 2777 2775 2773 2771 2769 2767 2765 2764 2762 2761 2759 2758 2756 2755 2754 2752 2750 2748 2744 2741 2739 2737 2735 2734 2732 2729 2727 2725 2723 2720 2718 2716 2714 2712 2710 2708 2706 2704 2701 2698 2694 2690 2687 2684 2683 2681 2680 2679 2677 2676 2674 2671 2669
2831 2829 2828 2826 2825 2823 2822 2821 2819 2818 2817 2815 2814 2813 2812 2811 2809 2807 2805 2803 2801 2799 2798 2796 2794 2792 2790 2788 2786 2784 2782 2780 2778 2776 2774 2772 2769 2767 2765 2763 2762 2760 2759 2757 2756 2754 2753 2752 2751 2750 2747 2744 2741 2738 2735 2733 2731 2729 2727 2725 2723 2721 2719 2716 2714 2712 2710 2708 2706 2704 2702 2699 2696 2693 2689 2686 2684 2681 2679 2678 2677 2676 2674 2672 2670 2668
2830 2829 2827 2825 2824 2822 2821 2819 2818 2817 2815 2814 2813 2812 2810 2809 2808 2806 2804 2802 2800 2799 2797 2795 2793 2791 2789 2787 2785 2783 2781 2779 2777 2774 2773 2770 2768 2766 2764 2762 2760 2758 2756 2755 2753 2752 2751 2750 2749 2748 2747 2744 2741 2737 2734 2731 2729 2726 2724 2723 2721 2719 2717 2714 2713 2711 2709 2707 2705 2703 2700 2698 2694 2691 2689 2686 2683 2680 2677 2676 2674 2674 2673 2671 2668 2666